• Currently

    Reported at Minneapolis, Minneapolis-St. Paul International Airport, MN
    9:53 AM CST MON MAY 29 2017
  • 59°F15°C
  • Overcast
    Overcast
  • Feels Like:59°F15°CDew Point:48°F9°CHumidity:68% Winds:NW 15 mph G 2124 kph G 34
    Pressure:29.8 in1009 hPaVisibility:10.00 miles16090.00 meters
Time Weather Temp Dew Point
Humidity Winds Visibility Pressure Precipitation
1 hr 24 hr
Wednesday, May 17
23:53 23:53 Cloudy Cloudy 69°F21°C 60°F16°C 73% NNE 15 mphNNE 24 kph 10.0 miles16.1 km 29.5 in999 hPa 0.00 in0.00 mm --
22:53 22:53 Cloudy Cloudy 71°F22°C 60°F16°C 68% NNE 14 mphNNE 22 kph 10.0 miles16.1 km 29.5 in999 hPa 0.00 in0.00 mm --
22:32 22:32 Cloudy Cloudy 71°F22°C 61°F16°C 71% N 13 mphN 20 kph 10.0 miles16.1 km 29.5 in999 hPa 0.00 in0.00 mm --
21:53 21:53 Cloudy Cloudy 75°F24°C 60°F16°C 60% NNW 8 mphNNW 13 kph 10.0 miles16.1 km 29.47 in998 hPa 0.00 in0.00 mm --
20:53 20:53 Mostly Cloudy Mostly Cloudy 77°F25°C 61°F16°C 58% NNW 9 mphNNW 15 kph 10.0 miles16.1 km 29.47 in998 hPa 0.00 in0.00 mm --
19:53 19:53 Mostly Cloudy Mostly Cloudy 79°F26°C 61°F16°C 54% WNW 6 mphWNW 9 kph 10.0 miles16.1 km 29.47 in998 hPa 0.00 in0.00 mm --
18:53 18:53 Partly Cloudy Partly Cloudy 83°F28°C 61°F16°C 48% W 12 mphW 19 kph 10.0 miles16.1 km 29.47 in998 hPa 0.00 in0.00 mm --
17:53 17:53 Mostly Cloudy Mostly Cloudy 82°F28°C 65°F18°C 56% SW 9 mphSW 15 kph 10.0 miles16.1 km 29.47 in998 hPa 0.00 in0.00 mm --
17:01 17:01 Mostly Cloudy Mostly Cloudy 82°F28°C 63°F17°C 53% SW 16 mphSW 26 kph 10.0 miles16.1 km 29.47 in998 hPa 0.00 in0.00 mm --
16:53 16:53 Mostly Cloudy With Nearby Thunderstorms Mostly Cloudy With Nearby Thunderstorms 82°F28°C 64°F18°C 55% SW 18 mphSW 30 kph 10.0 miles16.1 km 29.47 in998 hPa 0.00 in0.00 mm --
16:21 16:21 Mostly Cloudy With Nearby Thunderstorms Mostly Cloudy With Nearby Thunderstorms 82°F28°C 67°F19°C 60% WSW 14 mphWSW 22 kph 10.0 miles16.1 km 29.47 in998 hPa 0.00 in0.00 mm --
16:06 16:06 Mostly Cloudy With Thunderstorms Mostly Cloudy With Thunderstorms 81°F27°C 67°F19°C 62% WSW 13 mphWSW 20 kph 10.0 miles16.1 km 29.47 in998 hPa 0.00 in0.00 mm --
15:53 15:53 Mostly Cloudy With Nearby Thunderstorms Mostly Cloudy With Nearby Thunderstorms 79°F26°C 68°F20°C 69% W 7 mphW 11 kph 10.0 miles16.1 km 29.5 in999 hPa 0.04 in25.81 mm --
15:33 15:33 Mostly Cloudy With Light Thunderstorms Mostly Cloudy With Light Thunderstorms 81°F27°C 66°F19°C 61% SW 9 mphSW 15 kph 10.0 miles16.1 km 29.5 in999 hPa 0.00 in0.03 mm --
14:53 14:53 Mostly Cloudy Mostly Cloudy 82°F28°C 66°F19°C 58% SW 13 mphSW 20 kph 10.0 miles16.1 km 29.5 in999 hPa 0.00 in0.00 mm --
13:53 13:53 Mostly Cloudy Mostly Cloudy 79°F26°C 64°F18°C 60% S 13 mphS 20 kph 10.0 miles16.1 km 29.5 in999 hPa 0.00 in0.00 mm --
12:53 12:53 Mostly Cloudy Mostly Cloudy 75°F24°C 66°F19°C 74% SSE 10 mphSSE 17 kph 10.0 miles16.1 km 29.53 in1000 hPa 0.00 in0.00 mm --
11:53 11:53 Mostly Cloudy Mostly Cloudy 69°F21°C 63°F17°C 81% SSE 13 mphSSE 20 kph 10.0 miles16.1 km 29.56 in1001 hPa 0.00 in0.00 mm --
10:53 10:53 Cloudy Cloudy 67°F19°C 62°F17°C 84% SE 14 mphSE 22 kph 10.0 miles16.1 km 29.59 in1002 hPa 0.00 in0.00 mm --
09:53 09:53 Cloudy Cloudy 64°F18°C 60°F16°C 87% SE 12 mphSE 19 kph 10.0 miles16.1 km 29.62 in1003 hPa 0.04 in25.81 mm --
09:27 09:27 Cloudy With Light Rain Cloudy With Light Rain 64°F18°C 59°F15°C 84% SSE 13 mphSSE 20 kph 7.0 miles11.3 km 29.62 in1003 hPa 0.02 in12.90 mm --
09:08 09:08 Cloudy With Thunderstorms Cloudy With Thunderstorms 64°F18°C 59°F15°C 84% SSE 9 mphSSE 15 kph 10.0 miles16.1 km 29.62 in1003 hPa 0.00 in0.03 mm --
09:04 09:04 Cloudy Cloudy 64°F18°C 59°F15°C 84% SSE 12 mphSSE 19 kph 10.0 miles16.1 km 29.62 in1003 hPa 0.00 in0.03 mm --
08:53 08:53 Cloudy With Nearby Thunderstorms Cloudy With Nearby Thunderstorms 64°F18°C 59°F15°C 84% SE 15 mphSE 24 kph 9.0 miles14.5 km 29.62 in1003 hPa 0.09 in58.06 mm --
08:40 08:40 Cloudy With Nearby Thunderstorms Cloudy With Nearby Thunderstorms 65°F18°C 59°F15°C 81% SSE 12 mphSSE 19 kph 9.0 miles14.5 km 29.62 in1003 hPa 0.08 in51.61 mm --
08:15 08:15 Cloudy With Light Thunderstorms Cloudy With Light Thunderstorms 65°F18°C 58°F14°C 78% SSE 13 mphSSE 20 kph 10.0 miles16.1 km 29.62 in1003 hPa 0.00 in0.03 mm --
08:07 08:07 Cloudy With Nearby Thunderstorms Cloudy With Nearby Thunderstorms 65°F18°C 58°F14°C 78% SE 18 mphSE 30 kph 10.0 miles16.1 km 29.59 in1002 hPa 0.00 in0.03 mm --
07:53 07:53 Cloudy With Light Rain Cloudy With Light Rain 65°F18°C 59°F15°C 81% SE 16 mphSE 26 kph 10.0 miles16.1 km 29.62 in1003 hPa 0.00 in0.03 mm --
06:53 06:53 Cloudy Cloudy 65°F18°C 60°F16°C 84% ESE 16 mphESE 26 kph 10.0 miles16.1 km 29.59 in1002 hPa 0.00 in0.00 mm --
06:04 06:04 Cloudy Cloudy 66°F19°C 60°F16°C 81% S 12 mphS 19 kph 10.0 miles16.1 km 29.62 in1003 hPa 0.00 in0.00 mm --
05:53 05:53 Cloudy With Nearby Thunderstorms Cloudy With Nearby Thunderstorms 66°F19°C 60°F16°C 81% SE 13 mphSE 20 kph 10.0 miles16.1 km 29.62 in1003 hPa 0.01 in6.45 mm --
05:07 05:07 Cloudy With Thunderstorms Cloudy With Thunderstorms 66°F19°C 61°F16°C 84% SE 16 mphSE 26 kph 10.0 miles16.1 km 29.62 in1003 hPa 0.00 in0.00 mm --
04:53 04:53 Cloudy With Nearby Thunderstorms Cloudy With Nearby Thunderstorms 66°F19°C 61°F16°C 84% SE 10 mphSE 17 kph 10.0 miles16.1 km 29.62 in1003 hPa 0.12 in77.42 mm --
04:07 04:07 Cloudy With Thunderstorms Cloudy With Thunderstorms 64°F18°C 61°F16°C 90% SSE 12 mphSSE 19 kph 8.0 miles12.9 km 29.65 in1004 hPa 0.00 in0.00 mm --
04:03 04:03 Cloudy With Thunderstorms Cloudy With Thunderstorms 64°F18°C 61°F16°C 90% S 7 mphS 11 kph 7.0 miles11.3 km 29.65 in1004 hPa 0.00 in0.00 mm --
03:53 03:53 Cloudy With Nearby Thunderstorms Cloudy With Nearby Thunderstorms 63°F17°C 60°F16°C 90% E 6 mphE 9 kph 8.0 miles12.9 km 29.65 in1004 hPa 0.02 in12.90 mm --
03:34 03:34 Cloudy With Nearby Thunderstorms Cloudy With Nearby Thunderstorms 63°F17°C 60°F16°C 90% ENE 5 mphENE 7 kph 8.0 miles12.9 km 29.65 in1004 hPa 0.02 in12.90 mm --
02:53 02:53 Cloudy With Light Thunderstorms Cloudy With Light Thunderstorms 62°F17°C 59°F15°C 90% E 5 mphE 7 kph 3.0 miles4.8 km 29.65 in1004 hPa 0.01 in6.45 mm --
02:13 02:13 Mostly Cloudy With Light Thunderstorms Mostly Cloudy With Light Thunderstorms 62°F17°C 58°F14°C 86% ESE 10 mphESE 17 kph 10.0 miles16.1 km 29.68 in1005 hPa 0.00 in0.03 mm --
01:53 01:53 Cloudy With Nearby Thunderstorms Cloudy With Nearby Thunderstorms 62°F17°C 57°F14°C 84% SE 8 mphSE 13 kph 9.0 miles14.5 km 29.71 in1006 hPa 0.00 in0.03 mm --
01:30 01:30 Mostly Cloudy With Nearby Thunderstorms Mostly Cloudy With Nearby Thunderstorms 61°F16°C 56°F13°C 84% ESE 9 mphESE 15 kph 10.0 miles16.1 km 29.68 in1005 hPa 0.00 in0.00 mm --
00:53 00:53 Mostly Cloudy Mostly Cloudy 61°F16°C 56°F13°C 84% ENE 6 mphENE 9 kph 10.0 miles16.1 km 29.68 in1005 hPa 0.00 in0.00 mm --